Location: Grumello Cremonese
(45.1833°N, 9.8667°E)
Time: 12:09:58
(UTC+00:00)

Daily predictions for brighter satellites

Satellite Brightness Start Highest point End
(mag) Time Altitude Azimuth Time Altitude Azimuth Time Altitude Azimuth
SL-24 R/B 4.4 16:44:29 10° SSE 16:48:58 87° ENE 16:54:00 10° NNW
Cosmos 1626 Rocket 3.9 16:45:24 10° SSE 16:49:37 47° E 16:53:53 10° NNE
Cosmos 1092 Rocket 4.4 16:44:41 10° SSE 16:50:24 42° E 16:56:08 10° NNE
Cosmos 2263 Rocket 4.4 16:48:00 10° W 16:51:53 19° NW 16:55:46 10° N
Cosmos 1898 Rocket 3.7 16:47:47 10° S 16:52:51 52° ESE 16:57:55 10° NNE
Cosmos 923 Rocket 4.1 16:48:55 10° NNW 16:54:17 87° WSW 16:59:35 10° SSE
TELKOM 3 4.3 16:54:41 10° NW 16:56:29 22° N 16:58:22 10° ENE
CZ-4C R/B 3.7 16:53:24 10° N 16:56:31 51° WNW 16:59:39 10° SSW
Cosmos 1680 Rocket 3.5 16:53:19 10° NNW 16:58:35 79° ENE 17:03:47 10° SSE
Nadezhda 4 Rocket 4.0 16:52:52 10° S 16:59:05 80° E 17:05:16 10° N
Meteor 2-10 Rocket 4.3 16:56:02 10° NNW 17:01:17 58° W 17:06:20 10° S
Cosmos 1328 4.3 16:58:12 10° SSE 17:01:53 37° E 17:05:34 10° NNE
CZ-2D R/B 3.7 17:01:30 10° SE 17:05:03 38° ENE 17:08:37 10° N
CZ-4B R/B 1.9 17:02:00 10° NNE 17:05:06 37° E 17:08:05 10° SSE
Landsat 5 4.3 17:02:30 10° N 17:06:13 47° WNW 17:09:53 10° SW
MOS 1 Rocket 3.7 17:02:53 10° NNE 17:06:49 34° E 17:10:47 10° SSE
NOAA 11 4.5 17:03:35 10° S 17:09:05 76° WSW 17:14:36 10° NNW
Cosmos-2242 3.9 17:06:20 10° NNE 17:10:02 27° ENE 17:13:45 10° SE
NOSS 3-1 (C) 4.2 17:05:11 10° NW 17:12:44 87° NE 17:21:30 10° SE
COSMO-SKYMED 1 2.8 17:10:01 10° NNE 17:14:15 50° E 17:18:28 10° S
Cosmos 1937 Rocket 3.6 17:10:16 10° S 17:15:29 61° ESE 17:20:44 10° NNE
BREEZE-M DEB (TANK) 2.7 17:13:35 10° WNW 17:15:41 32° N 17:17:14 16° ENE
Cosmos 1758 Rocket 4.1 17:12:15 10° SSE 17:16:21 37° E 17:20:30 10° NNE
Aureole 3 3.3 17:14:47 10° NNW 17:17:47 56° W 17:20:42 10° S
USA 290 2.8 17:19:08 10° N 17:22:06 34° ENE 17:25:02 10° SE
NOSS 2-1 (C) 3.7 17:20:29 10° SW 17:23:44 48° NW 17:27:07 10° NNE
CZ-4 R/B 4.5 17:20:57 10° SSE 17:25:00 57° ENE 17:29:06 10° N
Cosmos 1833 Rocket 2.8 17:20:32 10° NNW 17:26:04 56° ENE 17:31:35 10° SE
H-2A R/B 2.4 17:22:47 10° SE 17:27:29 40° ENE 17:32:19 10° N
NOSS 2-1 (D) 4.0 17:26:31 10° WSW 17:29:42 42° NW 17:33:02 10° NNE
Cosmos 1939 Rocket 3.2 17:25:41 10° S 17:29:45 71° WSW 17:33:47 10° NNW
Helios 1A Rocket 3.7 17:26:31 10° SE 17:30:06 29° ENE 17:33:42 10° N
H-2A R/B 3.3 17:27:12 10° N 17:31:22 43° WNW 17:35:25 10° SW
Cosmos 2344 4.4 17:23:23 10° NW 17:32:40 72° NE 17:45:40 10° SE
Cosmos 1602 Rocket 3.6 17:28:46 10° S 17:33:07 81° W 17:37:32 10° N
Cosmos 44 4.4 17:29:09 10° WSW 17:33:45 42° NW 17:38:41 10° NNE
USA 229 DEB 3.9 17:26:50 10° NW 17:34:11 87° NE 17:41:56 10° SE
Cosmos 2026 Rocket 3.9 17:28:12 10° S 17:34:17 71° E 17:40:31 10° NNE
USA 229 3.9 17:26:56 10° NW 17:34:18 87° NE 17:42:03 10° SE
Feng Yun 1-1 Rocket 4.3 17:29:31 10° SSE 17:34:59 88° WSW 17:40:40 10° NNW
CZ-3B R/B 2.1 17:32:29 10° NW 17:35:13 70° NE 17:43:36 10° ESE
SJ 16-02 3.5 17:33:04 10° WSW 17:36:39 24° WNW 17:40:16 10° N
YAOGAN 1 2.7 17:34:54 10° SE 17:39:03 48° ENE 17:43:13 10° N
Cosmos 1689 Rocket 2.5 17:41:34 32° ENE 17:42:05 35° E 17:44:43 10° SSE
Cosmos 1844 Rocket 4.5 17:37:13 10° WSW 17:42:05 29° NW 17:46:58 10° N
Cosmos 1553 Rocket 4.1 17:36:36 10° N 17:42:52 53° ENE 17:49:01 10° SSE
Aureole 3 Rocket 2.5 17:40:14 10° N 17:43:32 85° E 17:47:41 10° S
COSMOS 2406 3.2 17:39:39 10° NNW 17:45:29 87° ENE 17:51:14 10° SSE
Cosmos 2082 Rocket 2.5 17:40:22 10° NNW 17:45:52 45° ENE 17:51:18 10° SE
HJ-1C 4.2 17:47:04 30° ENE 17:47:04 30° ENE 17:49:44 10° N
Cosmos 1703 4.5 17:43:31 10° SSW 17:47:13 43° WNW 17:50:57 10° N
Cosmos 1825 Rocket 3.5 17:43:52 10° S 17:48:09 59° E 17:52:31 10° NNE
IRS-1C Rocket 4.1 17:43:16 10° SSE 17:48:31 90° SSW 17:53:49 10° NNW
Meteor 1-27 4.2 17:44:12 10° N 17:49:42 55° ENE 17:55:07 10° SSE
NOSS 3-1 (A) 4.1 17:42:18 10° NW 17:49:53 88° WSW 17:58:40 10° SE
X-37B 1.0 17:47:06 10° W 17:50:15 59° SSW 17:51:36 30° SE
deb Kosmos-1763 4.5 17:49:11 10° N 17:52:33 36° ENE 17:52:52 36° ENE
Cosmos 1812 Rocket 4.3 17:48:30 10° NNW 17:52:47 55° W 17:57:01 10° S
ISS -2.4 17:50:11 10° WNW 17:53:06 26° N 17:53:50 24° NNE
Okean O Rocket 4.1 17:51:01 10° SSW 17:54:40 25° W 17:58:20 10° NW
NOAA 15 4.5 17:50:49 10° SSE 17:56:03 75° ENE 18:01:21 10° N
CZ-4 R/B 1.3 17:54:41 10° SSE 17:58:43 89° SW 18:02:42 10° NNW
Iridium 4 Rocket 3.6 17:55:42 10° N 18:01:05 76° W 18:05:55 10° S
SKYMED 2 4.4 17:58:06 10° N 18:02:19 50° WNW 18:06:30 10° SSW
ERS-2 2.1 17:58:42 10° NNE 18:02:21 84° WNW 18:05:59 10° SSW
CSL-04 Rocket 3.7 17:57:46 10° SE 18:03:03 55° ENE 18:08:26 10° N
Okean-O 2.6 18:01:46 10° SSE 18:06:12 87° W 18:10:39 10° NNW
USA 234 4.3 18:05:52 21° NE 18:09:09 32° N 18:14:47 10° NW
CZ-4C R/B 4.4 18:05:22 10° NNW 18:09:17 16° N 18:11:46 14° NNE
S3M 3.9 18:03:20 10° N 18:09:23 58° ENE 18:15:24 10° SSE
Cosmos 1346 Rocket 2.9 18:07:19 10° SSW 18:11:14 74° WNW 18:15:12 10° N
Cosmos 1655 Rocket 4.0 18:05:27 10° SSE 18:11:27 53° E 18:17:28 10° NNE
Cosmos 2278 Rocket 2.3 18:06:13 10° SSW 18:11:53 76° WNW 18:17:11 12° NNE
Cosmos 1953 Rocket 3.4 18:10:19 10° S 18:14:38 74° E 18:17:58 17° NNE
CZ-2C R/B 4.2 18:09:30 10° S 18:14:48 50° W 18:20:22 10° NNW
SWARM C 4.5 18:13:57 10° S 18:17:15 83° W 18:18:11 45° N
SWARM A 4.3 18:14:03 10° S 18:17:22 78° W 18:18:52 30° N
Cosmos 2292 Rocket 3.4 18:14:32 10° S 18:19:29 71° E 18:20:41 43° NNE
Cosmos 1892 4.4 18:16:01 10° S 18:17:22 21° SSE 18:17:22 21° SSE
SAR-Lupe-4 4.0 18:17:50 19° N 18:20:17 62° WNW 18:23:48 10° SSW
Cosmos 44 Rocket 3.3 18:17:19 10° SSW 18:22:09 65° ESE 18:23:19 49° ENE
ARGOS 3.1 18:22:52 10° SSE 18:28:14 87° WSW 18:33:40 10° NNW
DMSP B5D1-3 4.5 18:23:57 10° NNE 18:29:05 84° WNW 18:34:11 10° SSW
Meteor 2-2 Rocket 4.3 18:25:01 10° N 18:30:55 59° ENE 18:34:20 26° SSE
Cosmos 1869 3.9 18:27:24 10° N 18:30:11 45° N 18:30:11 45° N
CZ-4B R/B 4.5 18:35:19 10° NW 18:36:57 13° WNW 18:38:34 10° W
Cosmos 468 4.4 18:33:30 10° NNW 18:38:47 90° WSW 18:41:13 33° SSE
CZ-2C R/B 2.6 18:33:45 13° NNE 18:38:48 74° ESE 18:44:25 10° S
Cosmos 494 Rocket 3.9 18:37:36 10° NNW 18:42:30 67° NE 18:42:30 67° NE
Cosmos 2150 Rocket 3.9 18:39:29 10° SSW 18:44:39 87° WNW 18:45:58 52° NNE
Cosmos 1048 Rocket 4.0 18:42:36 10° NNW 18:47:45 77° WSW 18:49:36 40° S
Cosmos 2297 3.9 18:46:51 10° S 18:51:23 53° SSE 18:51:23 53° SSE
SL-08 RB Rocket 4.2 18:59:18 50° SW 19:00:02 57° W 19:04:28 10° NNW
H-2A R/B 4.0 19:02:42 10° SSW 19:07:01 28° W 19:11:27 10° NW
Cosmos 1125 Rocket 3.8 19:04:08 10° SSW 19:08:41 64° WSW 19:08:41 64° WSW
Cosmos 2266 Rocket 4.2 19:07:31 10° SSW 19:13:43 65° W 19:19:50 10° N
Cosmos 1943 Rocket 4.3 19:22:19 10° SSW 19:23:18 16° SSW 19:23:18 16° SSW
Cosmos 2082 Rocket 3.9 19:24:50 10° NW 19:29:44 30° WSW 19:33:42 14° SSW
ATLAS 2AS CENTAUR R/B 4.4 19:44:00 10° NNW 19:48:20 24° N 19:48:20 24° N
USA 234 4.3 19:53:12 37° NNW 19:53:12 37° NNW 19:57:28 10° NW
CZ-4C R/B 4.4 19:53:59 10° NNW 19:56:58 23° N 19:56:58 23° N
